Stündliche Wetter Julara

Heute, 20 Januar, Mittwoch

Zeit Temperatur Niederschläge Wind Luftdruck Luftfeuchtigkeit
00:00 +26°C° 0 mm 4 m/S 717 mmHg 19%
01:00 +26°C° 0 mm 4 m/S 717 mmHg 20%
02:00 +25°C° 0 mm 4 m/S 717 mmHg 21%
03:00 +23°C° 0 mm 4 m/S 717 mmHg 22%
04:00 +23°C° 0 mm 4 m/S 717 mmHg 23%
05:00 +22°C° 0 mm 4 m/S 717 mmHg 24%
06:00 +22°C° 0 mm 4 m/S 718 mmHg 24%
07:00 +26°C° 0 mm 5 m/S 718 mmHg 21%
08:00 +29°C° 0 mm 7 m/S 718 mmHg 18%
09:00 +34°C° 0 mm 8 m/S 719 mmHg 14%
10:00 +35°C° 0 mm 7 m/S 718 mmHg 13%
11:00 +37°C° 0 mm 5 m/S 718 mmHg 12%
12:00 +38°C° 0 mm 4 m/S 718 mmHg 10%
13:00 +40°C° 0 mm 4 m/S 717 mmHg 10%
14:00 +39°C° 0 mm 3 m/S 716 mmHg 9%
15:00 +40°C° 0 mm 2 m/S 716 mmHg 8%
16:00 +39°C° 0 mm 2 m/S 715 mmHg 8%
17:00 +39°C° 0 mm 3 m/S 715 mmHg 8%
18:00 +39°C° 0 mm 3 m/S 715 mmHg 8%
19:00 +37°C° 0 mm 3 m/S 715 mmHg 9%
20:00 +34°C° 0 mm 3 m/S 715 mmHg 11%
21:00 +31°C° 0 mm 3 m/S 716 mmHg 12%
22:00 +30°C° 0 mm 3 m/S 716 mmHg 12%
23:00 +29°C° 0 mm 4 m/S 715 mmHg 13%

Morgen, 21 Januar, Donnerstag

Zeit Temperatur Niederschläge Wind Luftdruck Luftfeuchtigkeit
00:00 +28°C° 0 mm 4 m/S 715 mmHg 14%
01:00 +28°C° 0 mm 4 m/S 715 mmHg 14%
02:00 +27°C° 0 mm 4 m/S 715 mmHg 15%
03:00 +26°C° 0 mm 3 m/S 715 mmHg 16%
04:00 +25°C° 0 mm 4 m/S 715 mmHg 17%
05:00 +25°C° 0 mm 4 m/S 715 mmHg 17%
06:00 +25°C° 0 mm 4 m/S 715 mmHg 18%
07:00 +28°C° 0 mm 5 m/S 716 mmHg 16%
08:00 +33°C° 0 mm 6 m/S 716 mmHg 13%
09:00 +36°C° 0 mm 7 m/S 717 mmHg 11%
10:00 +39°C° 0 mm 6 m/S 716 mmHg 10%
11:00 +40°C° 0 mm 5 m/S 716 mmHg 9%
12:00 +42°C° 0 mm 5 m/S 716 mmHg 9%
13:00 +42°C° 0 mm 4 m/S 715 mmHg 9%
14:00 +41°C° 0 mm 2 m/S 714 mmHg 8%
15:00 +41°C° 0 mm 1 m/S 713 mmHg 8%
16:00 +41°C° 0 mm 2 m/S 713 mmHg 8%
17:00 +40°C° 0 mm 3 m/S 713 mmHg 8%
18:00 +40°C° 0 mm 3 m/S 713 mmHg 9%
19:00 +38°C° 0 mm 3 m/S 713 mmHg 9%
20:00 +37°C° 0 mm 3 m/S 713 mmHg 10%
21:00 +35°C° 0 mm 3 m/S 713 mmHg 11%
22:00 +34°C° 0 mm 3 m/S 713 mmHg 12%
23:00 +32°C° 0 mm 2 m/S 713 mmHg 13%

übermorgen, 22 Januar, Freitag

Zeit Temperatur Niederschläge Wind Luftdruck Luftfeuchtigkeit
00:00 +31°C° 0 mm 2 m/S 713 mmHg 13%
01:00 +30°C° 0 mm 2 m/S 713 mmHg 18%
02:00 +29°C° 0 mm 2 m/S 713 mmHg 22%
03:00 +28°C° 0 mm 2 m/S 713 mmHg 26%
04:00 +27°C° 0 mm 2 m/S 713 mmHg 28%
05:00 +27°C° 0 mm 2 m/S 713 mmHg 29%
06:00 +27°C° 0 mm 2 m/S 714 mmHg 31%
07:00 +30°C° 0 mm 2 m/S 714 mmHg 27%
08:00 +32°C° 0 mm 2 m/S 715 mmHg 23%
09:00 +36°C° 0 mm 3 m/S 716 mmHg 19%
10:00 +38°C° 0 mm 3 m/S 715 mmHg 16%
11:00 +40°C° 0 mm 4 m/S 715 mmHg 13%
12:00 +42°C° 0 mm 4 m/S 714 mmHg 10%
13:00 +43°C° 0 mm 4 m/S 714 mmHg 9%
14:00 +43°C° 0 mm 4 m/S 713 mmHg 9%
15:00 +44°C° 0 mm 4 m/S 712 mmHg 8%
16:00 +43°C° 0 mm 5 m/S 712 mmHg 8%
17:00 +43°C° 0 mm 5 m/S 712 mmHg 8%
18:00 +42°C° 0 mm 6 m/S 712 mmHg 8%
19:00 +40°C° 0 mm 6 m/S 712 mmHg 9%
20:00 +39°C° 0 mm 5 m/S 713 mmHg 9%
21:00 +36°C° 0 mm 5 m/S 713 mmHg 10%
22:00 +35°C° 0 mm 5 m/S 713 mmHg 17%
23:00 +33°C° 0 mm 5 m/S 712 mmHg 23%

23 Januar, Samstag

Zeit Temperatur Niederschläge Wind Luftdruck Luftfeuchtigkeit
00:00 +32°C° 0 mm 5 m/S 712 mmHg 30%
01:00 +30°C° 0 mm 4 m/S 712 mmHg 32%
02:00 +30°C° 0 mm 4 m/S 712 mmHg 35%
03:00 +29°C° 0 mm 3 m/S 712 mmHg 37%
04:00 +30°C° 0 mm 4 m/S 712 mmHg 37%
05:00 +30°C° 0 mm 6 m/S 713 mmHg 38%
06:00 +30°C° 0 mm 7 m/S 713 mmHg 38%
07:00 +30°C° 0 mm 6 m/S 714 mmHg 37%
08:00 +32°C° 0 mm 6 m/S 714 mmHg 36%
09:00 +32°C° 0 mm 5 m/S 715 mmHg 34%
10:00 +32°C° 0 mm 5 m/S 714 mmHg 37%
11:00 +30°C° 0 mm 4 m/S 714 mmHg 40%
12:00 +30°C° 0 mm 4 m/S 714 mmHg 42%
13:00 +29°C° 0.2 mm 3 m/S 714 mmHg 49%
14:00 +27°C° 0.2 mm 3 m/S 713 mmHg 56%
15:00 +26°C° 0.2 mm 3 m/S 713 mmHg 62%
16:00 +25°C° 0.7 mm 2 m/S 714 mmHg 68%
17:00 +24°C° 0.7 mm 2 m/S 714 mmHg 75%
18:00 +23°C° 0.7 mm 2 m/S 714 mmHg 81%
19:00 +22°C° 1 mm 4 m/S 714 mmHg 82%
20:00 +22°C° 1 mm 5 m/S 714 mmHg 83%
21:00 +22°C° 1 mm 7 m/S 714 mmHg 84%
22:00 +22°C° 0.4 mm 7 m/S 714 mmHg 84%
23:00 +22°C° 0.4 mm 7 m/S 713 mmHg 83%

24 Januar, Sonntag

Zeit Temperatur Niederschläge Wind Luftdruck Luftfeuchtigkeit
00:00 +22°C° 0.4 mm 7 m/S 713 mmHg 83%
01:00 +22°C° 1 mm 6 m/S 713 mmHg 85%
02:00 +22°C° 1 mm 6 m/S 712 mmHg 86%
03:00 +22°C° 1 mm 5 m/S 711 mmHg 88%
04:00 +22°C° 1.4 mm 5 m/S 712 mmHg 89%
05:00 +22°C° 1.4 mm 4 m/S 712 mmHg 89%
06:00 +22°C° 1.4 mm 4 m/S 712 mmHg 90%
07:00 +22°C° 1.6 mm 3 m/S 712 mmHg 89%
08:00 +22°C° 1.6 mm 3 m/S 712 mmHg 89%
09:00 +24°C° 1.6 mm 3 m/S 713 mmHg 88%
10:00 +23°C° 3.2 mm 4 m/S 712 mmHg 88%
11:00 +23°C° 3.2 mm 5 m/S 712 mmHg 88%
12:00 +23°C° 3.2 mm 6 m/S 712 mmHg 89%
13:00 +24°C° 0.4 mm 7 m/S 711 mmHg 83%
14:00 +26°C° 0.4 mm 7 m/S 711 mmHg 78%
15:00 +27°C° 0.4 mm 8 m/S 710 mmHg 72%
16:00 +27°C° 0.3 mm 8 m/S 710 mmHg 73%
17:00 +27°C° 0.3 mm 9 m/S 710 mmHg 73%
18:00 +27°C° 0.3 mm 9 m/S 709 mmHg 73%
19:00 +26°C° 0.6 mm 9 m/S 709 mmHg 76%
20:00 +26°C° 0.6 mm 10 m/S 709 mmHg 78%
21:00 +24°C° 0.6 mm 10 m/S 709 mmHg 80%
22:00 +24°C° 1.4 mm 10 m/S 709 mmHg 80%
23:00 +24°C° 1.4 mm 10 m/S 708 mmHg 80%

25 Januar, Montag

Zeit Temperatur Niederschläge Wind Luftdruck Luftfeuchtigkeit
00:00 +26°C° 1.4 mm 10 m/S 708 mmHg 80%
01:00 +26°C° 1.6 mm 10 m/S 707 mmHg 80%
02:00 +26°C° 1.6 mm 10 m/S 707 mmHg 80%
03:00 +26°C° 1.6 mm 11 m/S 706 mmHg 79%
04:00 +26°C° 1.1 mm 12 m/S 706 mmHg 79%
05:00 +26°C° 1.1 mm 14 m/S 707 mmHg 79%
06:00 +26°C° 1.1 mm 15 m/S 707 mmHg 78%
07:00 +27°C° 0.2 mm 14 m/S 707 mmHg 76%
08:00 +27°C° 0.2 mm 14 m/S 708 mmHg 74%
09:00 +28°C° 0.2 mm 13 m/S 708 mmHg 72%
10:00 +29°C° 0 mm 12 m/S 708 mmHg 68%
11:00 +29°C° 0 mm 11 m/S 708 mmHg 65%
12:00 +31°C° 0 mm 10 m/S 708 mmHg 62%
13:00 +32°C° 0.5 mm 9 m/S 708 mmHg 58%
14:00 +33°C° 0.5 mm 9 m/S 708 mmHg 55%
15:00 +34°C° 0.5 mm 9 m/S 707 mmHg 51%
16:00 +34°C° 0.4 mm 8 m/S 708 mmHg 51%
17:00 +34°C° 0.4 mm 7 m/S 708 mmHg 51%
18:00 +34°C° 0.4 mm 6 m/S 708 mmHg 50%
19:00 +33°C° 0 mm 5 m/S 709 mmHg 54%
20:00 +32°C° 0 mm 4 m/S 709 mmHg 58%
21:00 +30°C° 0 mm 3 m/S 709 mmHg 62%
22:00 +29°C° 0 mm 3 m/S 710 mmHg 64%
23:00 +29°C° 0 mm 3 m/S 710 mmHg 65%
Mehr zeigen

Wir brauchen deine Erlaubnis

Meteoprog und unser Service Anbieter werden persönliche Daten aufbewahren, so wie Cookies, Geräte Bezeichnung oder ähnliche Technologien von deinem Gerät und Prozess, so wie Persönliche Daten Inhalte und Werbungen, genauso wie social Media und den Verkehr zu analysieren.

  • Aufbewahrung und/oder Zugang zu deiner Geräte Informationen.

    Cookies, Geräte Bezeichnung oder andere Informationen, können aufbewahrt oder Zugang zu deinem Gerät erhalten, für den Grund, der oben angegeben wird.

  • Personalisierte Werbung und Inhalte, Messungen, Einblick in das Publikum und Produkt Entwicklung.

    Werbungen und Inhalte können personalisiert werden, basierend auf ein Profil. Mehr Daten können besser personalisierte Werbungen und Inhalte hinzufügen. Werbung und Inhalte können gezeigt und gemessen werden. Einblicke über das Publikum, welche die Werbung gesehen haben und den Inhalt, können abgeleitet werden. So wie Daten können genutzt werden, um es zu verbessern oder die Benutzer Erfahrung zu verbessern das System und die Software.

Wenn du “Ich stimme zu” klickst, erlaubst du uns, die Cookies zu benutzen die Geräte Bezeichnung, den Web oder ähnliche Technologien zu benutzen. Deine Settings, können in deinem Gerät bei deinem Browser geändert werden.

Für den bestimmten Zweck, berechtigten Interessen beruhen darauf, mehr als auf den Inhalt. Du kannst mehr darüber in unseren Privaten und Cookie Politik lesen.